[[{"header":{"parameterUnit":"m.s-1","parameterCategory":1,"la1":30.2992,"la2":30.254,"lo1":-89.0895,"lo2":-89.0443,"dy":0.0025,"dx":0.0025,"nx":19,"ny":19,"refTime":"2026-05-09T21:00:00:Z","depth":0,"parameterNumber":2,"parameterNumberName":"U-component_of_WINDS"},"data":[0,0,0,-0.3415,-0.3416,-0.3417,-0.3417,-0.3449,-0.345,0,0,0,0,0,0,0,0,0,0,0,-0.343,-0.3431,-0.3415,-0.3416,-0.3417,-0.3417,-0.3449,-0.345,0,0,0,0,0,0,0,0,0,0,0,-0.343,-0.3431,-0.3432,-0.3416,-0.3417,-0.3417,-0.3449,-0.3438,0,0,0,0,0,0,0,0,0,0,-0.3432,-0.3459,-0.3431,-0.3432,-0.3416,-0.3417,-0.3417,-0.3437,-0.3439,-0.3461,0,-0.3482,0,-0.3467,-0.3454,-0.3454,0,0,0,-0.3405,-0.3458,-0.3444,-0.3432,-0.3416,-0.3417,-0.3414,-0.3438,-0.344,-0.3463,-0.3482,-0.3483,-0.3467,-0.3454,-0.3455,-0.3613,-0.3614,0,0,-0.3405,-0.3439,-0.3443,-0.3447,-0.3445,-0.3414,-0.3414,-0.3438,-0.3462,-0.3482,-0.3483,-0.3468,-0.3455,-0.3455,-0.3612,-0.3613,0,0,0,-0.3412,-0.344,-0.3425,-0.3446,-0.3444,-0.3414,-0.3414,-0.3461,-0.3453,-0.3483,-0.3468,-0.3455,-0.3456,-0.361,-0.3612,-0.3706,0,0,0,-0.3411,-0.3444,-0.3425,-0.3446,-0.3444,-0.3452,-0.3437,-0.3452,-0.3453,-0.3468,-0.3455,-0.3456,-0.3609,-0.3611,-0.37,-0.3745,0,0,0,-0.3425,-0.3445,-0.345,-0.3448,-0.345,-0.345,-0.3444,-0.3451,-0.3445,-0.3454,-0.3456,-0.3608,-0.3611,-0.3695,-0.3737,-0.3797,0,0,0,-0.345,-0.3534,-0.3452,-0.3541,-0.345,-0.3508,-0.3443,-0.3485,-0.3504,-0.3455,-0.3609,-0.3612,-0.3694,-0.3731,-0.3792,-0.3854,-0.3883,0,0,-0.3575,-0.355,-0.36,-0.3527,-0.3608,-0.3505,-0.3601,-0.3587,-0.3558,-0.3597,-0.36,-0.3702,-0.3736,-0.3796,-0.4033,-0.4056,0,0,0,-0.3651,-0.3688,-0.3701,-0.372,-0.3711,-0.3708,-0.3675,-0.3671,-0.3702,-0.3584,-0.3739,-0.3758,-0.3792,-0.3821,-0.384,-0.3868,-0.3626,-0.3626,-0.3626,-0.3878,-0.3835,-0.3915,-0.3873,-0.3893,-0.386,-0.3873,-0.3862,-0.3813,-0.3851,-0.3862,-0.4011,-0.4045,-0.406,-0.4089,-0.3891,-0.3892,-0.3892,-0.3892,-0.4058,-0.4103,-0.4037,-0.409,-0.4047,-0.4092,-0.4066,-0.403,-0.4069,-0.3998,-0.4026,-0.3953,-0.4086,-0.411,-0.3899,-0.3898,-0.3897,-0.3896,-0.3896,-0.4201,-0.4215,-0.4208,-0.4232,-0.4257,-0.4213,-0.4253,-0.4212,-0.4173,-0.4201,-0.421,-0.4208,-0.4202,-0.4208,-0.4209,-0.4209,-0.4209,-0.421,-0.421,-0.4353,-0.4341,-0.4378,-0.4377,-0.4385,-0.4391,-0.4361,-0.4368,-0.4367,-0.4334,-0.4334,-0.4284,-0.4107,-0.4063,-0.4218,-0.4217,-0.4216,-0.4215,-0.4214,-0.4551,-0.45,-0.4557,-0.4565,-0.4562,-0.4591,-0.4538,-0.4559,-0.456,-0.4582,-0.4526,-0.4401,-0.4374,-0.4358,-0.4321,-0.4533,-0.4533,-0.4533,-0.4534,-0.4672,-0.4654,-0.4704,-0.472,-0.4732,-0.469,-0.4761,-0.474,-0.4711,-0.471,-0.4674,-0.4623,-0.4608,-0.4589,-0.4568,-0.4534,-0.4795,-0.4795,-0.4795,-0.4792,-0.4774,-0.4839,-0.4807,-0.4803,-0.4801,-0.4866,-0.4891,-0.4848,-0.4805,-0.4709,-0.4698,-0.4615,-0.4589,-0.4544,-0.4512,-0.4448,0,0]},{"header":{"parameterUnit":"m.s-1","parameterCategory":1,"la1":30.2992,"la2":30.254,"lo1":-89.0895,"lo2":-89.0443,"dy":0.0025,"dx":0.0025,"nx":19,"ny":19,"refTime":"2026-05-09T21:00:00:Z","depth":0,"parameterNumber":3,"parameterNumberName":"V-component_of_WINDS"},"data":[0,0,0,3.0563,3.0561,3.0463,3.0462,3.0342,3.0342,0,0,0,0,0,0,0,0,0,0,0,3.0598,3.0598,3.0563,3.056,3.0463,3.0462,3.0343,3.0342,0,0,0,0,0,0,0,0,0,0,0,3.0598,3.0598,3.0597,3.056,3.0463,3.0462,3.0343,3.0414,0,0,0,0,0,0,0,0,0,0,3.0508,3.0548,3.0598,3.0597,3.056,3.0463,3.0462,3.0417,3.041,3.039,0,3.0378,0,3.0358,3.0334,3.0334,0,0,0,3.0554,3.0555,3.0523,3.0597,3.0559,3.0463,3.0505,3.0413,3.0404,3.038,3.0376,3.0371,3.0356,3.0333,3.0333,3.025,3.025,0,0,3.056,3.0583,3.0529,3.0517,3.0537,3.0508,3.0502,3.0407,3.0403,3.0376,3.0368,3.0354,3.0333,3.0332,3.025,3.025,0,0,0,3.0579,3.0587,3.0557,3.0523,3.0505,3.0506,3.0499,3.0408,3.0396,3.0367,3.0353,3.0332,3.0331,3.025,3.025,3.0268,0,0,0,3.0582,3.0599,3.056,3.0573,3.0507,3.0456,3.0501,3.0403,3.0391,3.0353,3.0332,3.033,3.025,3.025,3.0268,3.0273,0,0,0,3.0602,3.0601,3.059,3.0575,3.0534,3.0457,3.044,3.04,3.0383,3.0334,3.0329,3.025,3.025,3.0268,3.0272,3.0257,0,0,0,3.0629,3.0606,3.059,3.0559,3.0535,3.047,3.044,3.0389,3.035,3.0332,3.025,3.025,3.0268,3.0272,3.0257,3.0249,3.0249,0,0,3.0613,3.0605,3.0584,3.0567,3.0512,3.0483,3.0429,3.0368,3.034,3.028,3.0278,3.0268,3.0272,3.0257,3.0237,3.0237,0,0,0,3.0587,3.0572,3.0553,3.0518,3.0473,3.0434,3.0381,3.0358,3.0307,3.0316,3.0259,3.026,3.025,3.0245,3.0245,3.0234,3.0249,3.0249,3.0249,3.0597,3.0565,3.0528,3.0485,3.0451,3.0396,3.0364,3.0324,3.03,3.0287,3.0268,3.0261,3.0256,3.0255,3.0245,3.0262,3.0262,3.0262,3.0262,3.0569,3.0543,3.0514,3.0468,3.0433,3.0392,3.0338,3.0322,3.0277,3.0271,3.0261,3.0257,3.0256,3.0245,3.0263,3.0263,3.0263,3.0263,3.0263,3.0572,3.0554,3.0529,3.0475,3.0436,3.0391,3.0351,3.032,3.029,3.028,3.0257,3.0256,3.0251,3.0271,3.0271,3.0271,3.0271,3.0271,3.0271,3.0584,3.0555,3.0526,3.0478,3.0451,3.0412,3.0356,3.0328,3.0288,3.0268,3.0268,3.0244,3.0263,3.0268,3.027,3.0271,3.0271,3.0271,3.0271,3.0567,3.0566,3.0522,3.0496,3.0435,3.0398,3.036,3.0305,3.0276,3.0257,3.0235,3.0255,3.0243,3.0243,3.0246,3.0244,3.0244,3.0244,3.0244,3.0569,3.0561,3.0508,3.0468,3.0424,3.0385,3.0333,3.0289,3.0243,3.0223,3.0219,3.0221,3.0223,3.021,3.021,3.0213,3.0202,3.0202,3.0202,3.0556,3.0542,3.0506,3.0464,3.0414,3.0371,3.032,3.0272,3.0219,3.02,3.0206,3.0208,3.0211,3.0214,3.0194,3.0196,3.0201,0,0]}]]